Home > Weather > Suzuka > Past weeks

Flag for Japan Weather for the Past 2 Weeks in Suzuka, Japan

Now
75 °F

Sunny.


Feels Like: 78 °F
Forecast: 57 / 71 °F
Wind: 13 mph from Southeast

Location: Nagoya Airport

Current Time: May 2, 2016 at 1:30:40 PM

Latest Report: May 2, 2016 at 12:30 PM


Visibility: 10 mi

Pressure: 30.07 "Hg

Humidity: 44%

Dew Point: 52 °F

Location of SuzukaLocation

Historic Weather in Suzuka — Graph

°F

Suzuka Temperature Yesterday

Maximum temperature yesterday: 77 °F (at 2:30 PM)
Minimum temperature yesterday: 52 °F (at 5:00 AM)
Average temperature yesterday: 64 °F

High & Low Weather Summary for the Past Weeks

 TemperatureHumidityPressure
High77 °F (May 1, 2:30 PM)94% (Apr 21, 9:00 PM)30.30 "Hg (Apr 21, 9:00 PM)
Low48 °F (Apr 19, 4:30 AM)27% (Apr 30, 3:30 PM)29.36 "Hg (Apr 28, 4:30 PM)
Average61 °F69%29.90 "Hg
* Reported Apr 17 12:00 Noon — May 2 12:00 Noon, Suzuka, Weather by CustomWeather, © 2016

Note: Actual official high and low records may vary slightly from our data, if they occured in-between our weather recording intervals... More about our weather records

Advertising

Suzuka Weather History for the Previous 24 Hours

Scroll right to see more
 ConditionsComfort  
Time TempWeatherWind HumidityBarometerVisibility
12:00 PM
Mon, May 2
73 °FSunny.7 mph44%30.09 "Hg10 mi
11:30 AM70 °FPassing clouds.8 mph60%30.09 "HgN/A
11:00 AM68 °FSunny.3 mph56%30.09 "Hg10 mi
10:30 AM66 °FSunny.3 mph56%30.09 "Hg10 mi
10:00 AM64 °FSunny.3 mph60%30.09 "Hg10 mi
9:30 AM64 °FSunny.3 mph64%30.12 "Hg10 mi
9:00 AM63 °FSunny.3 mph64%30.12 "Hg10 mi
8:30 AM63 °FSunny.3 mph64%30.12 "Hg10 mi
8:00 AM63 °FSunny.5 mph64%30.12 "Hg10 mi
7:30 AM61 °FSunny.5 mph68%30.12 "Hg10 mi
7:00 AM61 °FSunny.8 mph68%30.09 "Hg10 mi
6:30 AM59 °FSunny.6 mph77%30.09 "Hg10 mi
6:00 AM59 °FSunny.10 mph72%30.09 "Hg10 mi
5:30 AM57 °FSunny.9 mph77%30.07 "Hg10 mi
5:00 AM57 °FSunny.12 mph77%30.07 "Hg10 mi
4:30 AM57 °FClear.9 mph77%30.07 "Hg10 mi
4:00 AM55 °FClear.7 mph82%30.04 "Hg10 mi
3:30 AM59 °FClear.5 mph77%30.07 "Hg10 mi
3:00 AM57 °FClear.6 mph77%30.04 "Hg10 mi
2:30 AM57 °FClear.7 mph72%30.04 "Hg10 mi
2:00 AM59 °FClear.7 mph77%30.01 "Hg10 mi
1:30 AM61 °FClear.6 mph72%30.01 "Hg10 mi
1:00 AM61 °FClear.5 mph68%30.04 "Hg10 mi
12:30 AM61 °FClear.2 mph77%30.04 "Hg10 mi
12:00 AM61 °FPassing clouds.3 mph68%30.04 "HgN/A
11:30 PM
Sun, May 1
63 °FClear.5 mph68%30.04 "Hg10 mi
11:00 PM63 °FClear.3 mph68%30.01 "Hg10 mi
10:30 PM63 °FPassing clouds.5 mph73%30.01 "HgN/A
10:00 PM63 °FClear.12 mph68%30.01 "Hg10 mi
9:30 PM63 °FClear.9 mph64%30.01 "Hg10 mi
9:00 PM63 °FClear.9 mph73%30.01 "Hg10 mi
8:30 PM64 °FClear.13 mph60%30.01 "Hg10 mi
8:00 PM64 °FClear.10 mph60%29.98 "Hg10 mi
7:30 PM64 °FPassing clouds.10 mph60%30.01 "HgN/A
7:00 PM66 °FPassing clouds.13 mph56%29.98 "HgN/A
6:30 PM66 °FPartly sunny.15 mph56%29.98 "HgN/A
6:00 PM66 °FPartly sunny.16 mph56%29.98 "HgN/A
5:30 PM68 °FPartly sunny.14 mph53%29.95 "HgN/A
5:00 PM68 °FPartly sunny.14 mph53%29.95 "HgN/A
4:30 PM72 °FSunny.15 mph36%29.95 "Hg10 mi
4:00 PM73 °FSunny.15 mph36%29.95 "Hg10 mi
3:30 PM75 °FPartly sunny.12 mph34%29.95 "HgN/A
3:00 PM77 °FPartly sunny.3 mph30%29.95 "HgN/A
2:30 PM77 °FPartly sunny.3 mph34%29.95 "HgN/A
2:00 PM72 °FPartly sunny.2 mph47%29.95 "HgN/A
1:30 PM72 °FPartly sunny.3 mph57%29.95 "HgN/A
1:00 PM70 °FScattered clouds.3 mph53%29.95 "HgN/A
Weather by CustomWeather, © 2016

See weather overviewHow to use our weather pages